Regional Weather Roundup
Issued by NWS

Home | Current Version | Previous Version | Graphics & Text | Print | Product List | Glossary On
Versions: 1 2 3 4 5 6 7 8 9 10 11 12 13 14 15 16 17 18 19 20 21 22 23 24 25 26 27 28 29 30 31 32 33 34 35 36 37 38 39 40 41 42 43 44 45 46 47 48 49 50
000
ASUS43 KLMK 302002
RWRKY
KENTUCKY REGIONAL WEATHER ROUNDUP
NATIONAL WEATHER SERVICE LOUISVILLE KY
300 PM EST FRI JAN 30 2015

NOTE "FAIR" INDICATES FEW OR NO CLOUDS BELOW 12,000 FEET
WITH NO SIGNIFICANT WEATHER AND/OR OBSTRUCTIONS TO VISIBILITY.

KYZ001>023-026-027-061>063-070>075-302100-
WESTERN AND SOUTH CENTRAL KENTUCKY

CITY           SKY/WX    TMP DP  RH WIND       PRES   REMARKS
PADUCAH        SUNNY     43  20  39 CALM      30.46F
HENDERSON      MOSUNNY   39  21  48 N9        30.46F WCI  33
OWENSBORO      SUNNY     40  20  45 N9        30.46F WCI  34
HOPKINSVILLE   SUNNY     42  22  44 N12       30.44F
BOWLING GREEN  SUNNY     43  19  38 MISG      30.43F
GLASGOW        NOT AVBL
$$

KYZ024-025-028>034-038-045-046-053-302100-
NORTH CENTRAL KENTUCKY

CITY           SKY/WX    TMP DP  RH WIND       PRES   REMARKS
LOUISVILLE/SDF MOSUNNY   39  16  39 NW7       30.44F WCI  34
LOUISVILLE/LOU SUNNY     38  16  40 N7        30.44F WCI  33
FORT KNOX      SUNNY     38  19  45 N8        30.41F WCI  32
$$

KYZ035>037-039>044-047>052-055>060-089>105-302100-
NORTHEAST KENTUCKY

CITY           SKY/WX    TMP DP  RH WIND       PRES   REMARKS
LEXINGTON      SUNNY     35  14  42 NW6       30.41F WCI  30
COVINGTON      PTSUNNY   30  14  51 VRB7      30.43F WCI  23
FRANKFORT      SUNNY     36  14  40 NW10      30.41F WCI  28
$$

KYZ054-064>069-076>088-106>120-302100-
SOUTHEAST KENTUCKY

CITY           SKY/WX    TMP DP  RH WIND       PRES   REMARKS
JACKSON        MOSUNNY   34  15  46 NW8       30.35F WCI  27
LONDON         MOSUNNY   39  17  41 NW12G18   30.36F WCI  32
SOMERSET       NOT AVBL
MIDDLESBORO    NOT AVBL
MONTICELLO     CLEAR     42  21  43 N10       30.41F
$$



USA.gov is the U.S. government's official web portal to all federal, state and local government web resources and services.